Current weather by "City, St" or "zip code"  
 

Current Conditions: Harlan, KY

Overcast


36.0 F

Last Updated on Oct 31 2020, 3:55 am EDT
Humidity: 100%
Wind Speed: E 3.5 mph
Barometer 30.34 in
Dewpoint: 36.0 F
Visibility: 0.25 mi
Precip: --
Heat Index: NA
Wind Chill: NA
Current conditions at:

Harlan, KY (KI35)

Lat: 36.85933 Lon: 83.35847

Local Radar Image active severe weather and emergency alerts image image weather storm and storm spotter reports image weather observation monitoring service image
Local
Radar
Active
Alerts
Storm Reports Obs
Monitoring

Sign-up For Email & Text Message Weather Alert Notification Services



Advertise Here

Observation History for Harlan, KY


Time Wind
(mph)
Vis
(mi)
Weather Precip (in) Temperature (F) Relative
Humidity
Wind
Chill
(F)
Heat
Index
(F)
Pressure
Air Dwpt altimeter
(in)
sea level
(mb)
Rmks
3:55 am EDT E 3.5 0.25 Overcast -- 36.0 36.0 100% NA NA 30.34 M
2:55 am EDT N 0.0 0.25 Overcast -- 36.0 36.0 100% NA NA 30.34 M
1:55 am EDT N 0.0 0.25 Overcast -- 37.0 36.7 100% NA NA 30.34 M
12:55 am EDT N 0.0 0.50 Overcast -- 37.0 36.5 100% NA NA 30.33 M
11:55 pm EDT N 0.0 0.25 Overcast -- 37.0 36.5 100% NA NA 30.33 M
10:55 pm EDT N 0.0 7.00 Partly Cloudy -- 37.0 36.5 100% NA NA 30.33 M
9:55 pm EDT N 0.0 10.00 Fair -- 38.0 36.0 94% NA NA 30.31 M
8:55 pm EDT N 0.0 10.00 Partly Cloudy -- 39.0 36.1 89% NA NA 30.30 M
7:55 pm EDT N 0.0 10.00 Overcast -- 42.0 36.7 82% NA NA 30.28 M
6:55 pm EDT N 0.0 10.00 Partly Cloudy -- 44.0 35.4 72% NA NA 30.26 M
5:55 pm EDT NW 3.5 10.00 Partly Cloudy -- 46.0 33.3 62% NA NA 30.25 M
4:55 pm EDT W 3.5 10.00 Overcast -- 48.0 34.0 58% NA NA 30.23 M
3:55 pm EDT N 3.5 10.00 Overcast -- 47.0 35.6 66% NA NA 30.22 M
2:55 pm EDT W 6.9 10.00 Overcast -- 45.0 36.1 71% 41 NA 30.23 M
1:55 pm EDT NW 5.8 10.00 Overcast -- 45.0 38.1 77% 42 NA 30.22 M
12:55 pm EDT NW 9.2 10.00 Overcast -- 45.0 38.1 76% 40 NA 30.22 M
11:55 am EDT W 9.2 10.00 Overcast -- 44.0 39.6 84% 39 NA 30.20 M
10:55 am EDT NW 5.8 10.00 Overcast -- 45.0 40.3 84% 42 NA 30.16 M
9:55 am EDT W 5.8 10.00 Overcast -- 45.0 41.7 88% 42 NA 30.14 M
8:55 am EDT W 4.6 7.00 Overcast -- 45.0 41.0 87% 43 NA 30.10 M
7:55 am EDT NW 6.9 10.00 Overcast -- 45.0 41.7 90% 41 NA 30.05 M
6:55 am EDT W 8.1 7.00 Overcast -- 45.0 41.9 89% 41 NA 30.03 M
5:55 am EDT W 3.5 3.00 Overcast -- 45.0 43.0 94% NA NA 29.99 M
4:55 am EDT NW 3.5 2.50 Overcast -- 45.0 43.0 93% NA NA 29.96 M

Regional Weather Observation


Middlesboro, Middlesboro-Bell County Airport, KY (K1A6)

Fog
35.0 F

Jackson, Carroll Airport, KY (KJKL)

Fair
39.0 F

London, London-Corbin Airport-Magee Field, KY (KLOZ)

Fair
36.0 F

Somerset, Somerset-Pulaski County - J.T. Wilson Field Airport, KY (KSME)

Fair
34.0 F

Madison Airport, KY (KI39)

Fair
84.0 F

Wise / Lonesome Pine, VA (KLNP)

Fair
36.0 F